Flag for Germany Weather past 2 weeks in Chemnitz, Saxony, Germany

Now
81 °F

Sunny.


Feels Like: 81 °F
Forecast: 59 / 79 °F
Wind: 12 mph from Northeast

Location: Altenburg Nobitz

Current Time: Jul 22, 2014 at 10:02:37 PM

Latest Report: Jul 22, 2014 at 6:50 PM


Visibility: 10 mi

Pressure: 29.98 "Hg

Humidity: 42%

Dew point: 55 °F

Location of ChemnitzLocation

Historic Weather in Chemnitz — Graph

°F

Chemnitz temperature yesterday

Maximum temperature yesterday: 75 °F (at 2:50 PM)
Minimum temperature yesterday: 70 °F (at 9:50 AM)
Average temperature yesterday: 73 °F

Past Weeks' High & Low Weather Summary

 TemperatureHumidityPressure
High91 °F (Jul 20, 1:50 PM)100% (Jul 8, 7:20 PM)30.21 "Hg (Jul 8, 7:20 PM)
Low55 °F (Jul 10, 8:20 AM)26% (Jul 20, 1:50 PM)29.56 "Hg (Jul 9, 8:50 AM)
Average74 °F61%29.93 "Hg
* Reported Jul 7 6:20 PM — Jul 22 6:50 PM, Chemnitz, Weather by CustomWeather, © 2014

Note: Actual official high and low records may vary slightly from our data, if they occured in-between our weather recording intervals... More about our weather records

Advertising

Chemnitz weather history for previous 24 hours

 ConditionsComfort  
Time TempWeatherWind HumidityBarometerVisibility
6:50 PM
Jul 22
81 °FSunny.12 mph42%29.98 "Hg10 mi
6:20 PM82 °FPassing clouds.13 mph40%29.98 "HgN/A
5:50 PM82 °FPassing clouds.10 mph37%29.98 "HgN/A
5:20 PM82 °FPassing clouds.10 mph40%29.98 "HgN/A
4:50 PM82 °FPassing clouds.9 mph40%29.98 "HgN/A
4:20 PM81 °FPassing clouds.13 mph39%29.98 "HgN/A
3:50 PM82 °FPassing clouds.12 mph40%29.98 "HgN/A
3:20 PM82 °FPassing clouds.10 mph37%29.98 "HgN/A
2:50 PM82 °FPassing clouds.12 mph35%29.98 "HgN/A
2:20 PM82 °FPassing clouds.13 mph37%29.98 "HgN/A
1:50 PM81 °FPassing clouds.13 mph39%29.98 "HgN/A
1:20 PM79 °FSunny.12 mph42%29.98 "Hg10 mi
12:50 PM82 °FSunny.13 mph40%29.98 "Hg10 mi
12:20 PM81 °FPassing clouds.15 mph42%29.98 "HgN/A
11:50 AM81 °FPassing clouds.12 mph39%29.98 "HgN/A
11:20 AM79 °FPassing clouds.10 mph45%29.98 "HgN/A
10:50 AM77 °FPassing clouds.13 mph51%29.98 "HgN/A
10:20 AM75 °FPassing clouds.10 mph57%29.98 "HgN/A
9:50 AM75 °FSunny.9 mph57%29.98 "Hg10 mi
9:20 AM73 °FPassing clouds.7 mph65%29.95 "HgN/A
8:50 AM72 °FSunny.8 mph69%29.95 "Hg10 mi
8:20 AM70 °FSunny.6 mph73%29.95 "Hg10 mi
Weather by CustomWeather, © 2014

See weather overviewHow to use our weather pages